Wind_Speed
129 128 126 124 122 120 118 117 117 118 119 120 120 119 118 116 114 113 112 112 112 112 113 114 114 114 115 115 116 116 115 113 112 111 111 109 107 106 104 104 104 104
131 131 130 129 127 125 123 121 119 119 119 119 120 121 121 121 121 119 118 117 115 114 114 115 115 115 116 117 118 119 119 118 117 115 113 112 111 109 107 106 106 106
132 133 133 132 131 130 129 127 124 122 121 121 121 121 121 122 123 123 123 122 121 120 119 118 118 118 119 120 120 120 121 121 120 119 117 116 114 113 111 110 109 109
132 133 133 134 134 134 133 132 130 128 126 124 123 123 123 122 122 122 123 124 124 123 122 122 122 122 122 123 124 124 125 124 123 122 121 120 119 117 116 114 113 112
135 134 134 134 135 135 135 135 134 133 132 130 129 127 126 125 124 123 123 123 124 124 124 123 123 123 123 123 124 126 127 128 127 126 125 125 124 122 121 120 118 117
138 138 136 135 135 136 136 136 136 136 136 135 134 133 131 129 128 127 125 124 124 124 124 125 125 124 123 124 124 125 126 128 129 128 128 129 128 127 127 126 124 123
141 140 139 138 137 136 137 137 138 138 138 138 138 137 136 135 133 131 130 128 127 126 125 125 125 125 125 124 124 125 126 127 127 128 129 130 131 130 130 129 129 128
145 143 142 142 141 139 138 138 138 139 139 140 140 140 139 139 138 137 135 134 132 131 130 129 128 127 126 125 125 125 126 127 127 128 129 130 131 131 131 132 131 131
149 147 146 145 144 143 142 141 140 140 140 141 142 142 142 141 141 141 140 140 139 137 136 135 134 132 131 129 128 128 128 128 129 129 130 131 131 131 132 133 133 134
154 152 150 148 147 146 146 145 144 143 142 142 143 143 144 144 143 143 143 143 143 143 142 141 140 139 138 136 135 135 134 133 133 133 133 134 134 134 134 134 134 135
157 156 155 153 151 150 149 148 148 147 146 145 144 144 145 146 146 145 145 145 145 145 145 146 146 145 144 143 142 141 140 140 139 139 139 138 138 138 138 137 136 137
162 160 159 158 156 154 153 152 151 150 149 149 147 146 146 146 146 146 147 147 147 147 147 147 148 148 148 148 147 146 145 145 144 144 144 143 143 142 142 141 140 140
167 165 164 162 160 159 158 156 155 153 152 152 151 150 149 147 147 146 146 147 147 147 147 148 148 149 149 150 151 151 150 149 149 148 148 147 147 146 146 146 145 144
171 170 168 167 165 164 162 161 159 157 156 155 154 153 152 151 150 149 148 148 147 147 147 147 148 148 148 149 150 151 152 153 153 153 152 151 151 150 149 149 148 147
176 174 173 171 170 168 166 165 163 162 160 159 157 156 155 154 153 153 152 151 150 149 149 148 148 148 148 148 148 149 151 152 154 155 155 156 156 155 154 153 152 151
181 179 178 176 174 173 171 169 167 166 164 163 161 161 159 158 157 156 155 155 155 153 152 151 151 150 150 149 149 149 149 150 151 152 153 155 157 158 158 158 157 155
181 182 182 180 179 177 175 174 172 170 168 167 165 164 164 162 161 160 159 158 158 158 157 156 155 154 153 153 152 152 151 151 151 151 152 153 154 156 157 157 158 158
180 182 183 184 183 182 180 178 177 175 173 171 170 168 167 166 166 164 163 162 161 161 161 160 160 158 157 156 156 156 155 155 155 155 155 155 155 155 155 155 155 156
178 180 182 184 185 185 184 183 182 180 179 177 175 173 172 170 170 169 168 167 165 164 164 163 163 162 161 160 159 159 159 159 160 160 160 160 159 159 158 157 156 155
174 177 180 182 184 185 186 186 186 185 184 182 180 179 177 175 174 173 172 171 170 169 168 167 166 166 165 164 163 163 163 163 164 164 164 164 164 163 162 161 159 158
170 172 175 178 180 183 185 186 188 188 187 187 185 184 182 181 179 178 177 176 175 174 173 172 171 170 169 169 168 168 167 167 167 167 168 168 167 166 165 164 163 163
168 169 171 173 175 178 181 183 186 187 189 190 190 189 187 186 184 183 182 181 180 179 178 177 176 175 174 174 173 173 173 172 172 172 172 171 171 170 169 168 167 167
167 168 169 170 172 174 175 177 180 183 186 188 190 191 191 190 189 188 186 185 184 183 182 182 181 180 180 179 178 178 178 178 178 178 177 176 175 174 172 171 171 171
165 166 167 169 170 172 173 174 175 177 179 182 185 188 190 192 192 192 191 190 189 188 187 186 185 185 185 184 184 183 183 183 183 183 183 182 180 179 177 175 175 175
165 165 166 167 169 170 171 172 172 173 174 176 178 180 183 186 188 191 192 193 194 193 192 191 190 189 188 187 187 188 188 189 189 188 187 186 185 183 182 181 181 181
164 164 165 166 167 168 169 170 170 171 172 173 174 175 176 178 180 183 185 188 191 193 194 195 195 194 193 192 191 191 191 192 192 192 191 190 188 187 186 186 186 186
Wind_Direction
235 235 234 234 235 235 237 239 241 242 243 244 243 241 239 239 239 241 242 243 245 246 247 248 249 250 251 251 252 252 251 251 251 251 253 253 254 255 255 257 258 258
237 237 236 236 235 235 235 236 238 240 241 243 244 245 244 243 242 241 242 242 243 245 246 248 249 250 251 251 252 253 253 253 252 252 252 253 254 254 254 255 256 257
238 238 238 238 238 237 237 236 237 237 239 240 242 243 245 246 246 246 245 245 245 245 246 247 248 249 250 251 252 252 253 254 254 254 254 254 254 254 254 254 255 255
238 239 239 239 239 239 239 239 238 238 237 238 239 241 242 244 246 247 248 249 249 248 248 249 250 250 251 252 253 253 253 253 254 254 255 255 255 255 255 255 255 255
237 238 239 239 240 240 240 241 241 240 239 239 238 239 240 241 243 245 246 248 250 251 251 251 252 252 253 254 255 256 257 256 256 255 254 254 255 255 255 255 255 256
235 236 237 238 239 240 241 241 242 242 242 242 241 240 239 240 241 242 243 245 247 249 250 251 252 252 253 254 256 257 258 259 259 259 258 257 256 256 256 256 256 256
234 235 236 237 238 239 240 241 242 242 243 243 243 243 242 241 240 241 241 242 243 245 247 249 250 251 252 253 254 255 257 258 259 260 261 260 260 259 258 258 258 257
233 234 235 236 237 237 238 240 241 242 243 243 244 244 244 244 243 242 242 242 242 243 244 245 247 248 250 251 252 253 255 256 257 258 259 260 261 261 261 261 261 260
234 234 235 235 236 237 238 238 239 241 242 243 244 245 245 245 245 245 244 243 243 243 244 244 245 246 247 248 249 251 252 253 255 256 258 259 260 260 261 262 262 262
235 235 235 235 236 237 237 238 239 239 240 242 243 244 245 245 246 246 246 246 246 245 245 245 245 246 246 247 247 248 249 251 252 254 255 257 258 259 260 261 262 263
236 236 236 235 236 236 237 237 238 239 240 240 242 243 244 245 246 246 247 247 247 248 247 247 247 247 247 247 247 248 248 249 250 251 252 254 256 257 258 259 260 262
237 237 237 237 236 236 237 237 238 238 239 240 241 242 243 244 245 246 247 247 248 248 249 249 249 249 249 249 249 249 249 249 249 250 251 252 253 255 256 257 258 260
238 238 237 238 238 237 237 237 238 238 239 239 240 241 242 243 244 245 246 247 247 248 248 249 250 250 251 251 251 251 251 251 251 251 251 252 252 253 255 256 257 258
238 238 238 238 238 239 239 238 238 239 239 239 240 240 241 242 243 244 245 246 247 247 248 249 250 250 251 252 253 253 253 253 253 252 252 253 253 254 255 256 257 258
238 238 239 239 239 239 240 240 240 240 240 240 240 241 241 241 242 243 244 245 245 246 247 248 248 249 250 251 252 253 254 255 255 255 254 254 254 255 255 256 257 258
238 238 239 239 240 240 240 240 241 241 241 241 241 241 242 242 242 243 243 244 244 245 246 246 247 248 249 249 250 251 252 254 255 256 256 257 257 257 257 257 257 258
240 239 239 239 240 240 241 241 242 242 242 242 242 242 242 243 243 243 244 244 245 245 245 246 246 247 248 248 249 250 251 252 253 254 255 256 257 258 258 259 259 259
240 240 240 240 240 240 241 242 242 243 243 243 243 243 243 243 243 244 244 245 245 246 246 246 246 247 247 248 248 249 250 251 252 252 253 254 255 257 258 259 259 260
241 241 242 241 241 241 241 242 242 243 243 244 244 244 244 244 244 244 245 245 246 246 247 247 247 247 248 248 249 249 250 251 251 252 253 253 254 255 256 257 258 259
242 242 242 242 242 242 242 242 243 243 243 244 244 245 245 245 245 245 245 246 246 246 247 248 248 248 249 249 250 250 250 251 252 252 253 253 254 255 255 256 257 257
244 243 243 243 243 243 243 243 243 244 244 244 244 245 245 246 246 246 246 246 246 247 247 248 249 249 250 250 250 251 251 252 252 253 253 254 254 255 255 256 256 257
245 245 245 245 244 244 244 244 244 244 244 245 245 245 245 246 246 247 247 247 247 248 248 248 249 249 250 250 251 251 252 252 253 254 254 254 255 255 256 256 257 257
245 245 245 246 246 246 245 245 245 245 245 245 245 246 246 246 246 247 247 248 248 249 249 249 249 250 250 251 251 252 253 253 254 254 255 255 256 256 256 257 257 258
245 245 245 246 246 246 246 246 246 246 246 246 246 246 246 246 247 247 247 248 249 249 250 250 251 251 251 251 252 252 253 253 254 255 255 256 256 257 257 258 258 258
244 245 245 246 246 247 247 247 247 247 247 247 247 247 247 247 248 248 248 248 249 249 250 250 251 252 252 253 253 253 254 254 254 255 255 256 257 257 258 258 259 259
244 244 245 245 246 247 247 247 248 248 248 248 249 249 249 249 249 249 249 249 249 249 250 250 251 251 252 253 254 254 254 255 255 255 256 256 257 258 258 258 259 260
Height
10572 10578 10583 10587 10590 10593 10596 10599 10603 10607 10610 10614 10618 10623 10626 10628 10631 10635 10636 10635 10637 10639 10640 10641 10642 10644 10645 10645 10646 10648 10651 10655 10658 10660 10662 10666 10670 10673 10675 10678 10680 10681
10559 10564 10570 10574 10578 10581 10585 10588 10592 10596 10599 10602 10606 10609 10612 10615 10619 10622 10624 10624 10626 10629 10629 10630 10632 10633 10633 10632 10633 10634 10637 10641 10645 10649 10652 10655 10659 10662 10665 10668 10669 10670
10545 10551 10556 10561 10565 10568 10572 10576 10580 10585 10588 10590 10594 10596 10599 10601 10604 10608 10611 10612 10615 10617 10619 10619 10620 10621 10620 10620 10620 10622 10624 10627 10632 10637 10640 10643 10646 10649 10652 10656 10658 10660
10533 10538 10543 10547 10551 10555 10559 10563 10567 10571 10575 10578 10582 10584 10587 10590 10592 10595 10597 10599 10601 10604 10606 10607 10608 10609 10608 10608 10608 10608 10610 10614 10619 10624 10627 10629 10632 10635 10639 10642 10645 10647
10520 10525 10529 10533 10537 10541 10545 10549 10553 10557 10561 10565 10569 10572 10575 10578 10581 10584 10586 10587 10589 10590 10593 10595 10595 10597 10598 10597 10596 10595 10596 10599 10604 10609 10613 10615 10618 10622 10625 10628 10631 10634
10505 10510 10516 10520 10524 10527 10531 10535 10538 10542 10546 10550 10554 10558 10563 10566 10569 10573 10575 10577 10578 10579 10580 10581 10582 10585 10587 10586 10585 10585 10585 10585 10588 10593 10597 10600 10603 10607 10611 10614 10617 10620
10488 10494 10499 10505 10510 10513 10517 10521 10524 10528 10531 10534 10538 10543 10547 10552 10556 10560 10563 10565 10567 10568 10570 10570 10571 10573 10576 10576 10577 10576 10575 10574 10576 10578 10580 10583 10587 10591 10595 10598 10601 10604
10472 10478 10483 10488 10494 10498 10503 10507 10510 10513 10516 10520 10523 10527 10532 10537 10541 10546 10549 10553 10555 10557 10558 10560 10560 10562 10564 10567 10568 10567 10566 10565 10565 10565 10566 10568 10572 10576 10579 10582 10584 10587
10456 10462 10468 10473 10478 10483 10487 10492 10496 10499 10502 10505 10509 10513 10517 10521 10525 10529 10534 10537 10541 10543 10546 10547 10549 10550 10553 10556 10557 10557 10557 10556 10555 10555 10555 10556 10558 10560 10562 10565 10568 10572
10440 10446 10451 10457 10462 10467 10472 10476 10481 10485 10488 10491 10494 10498 10502 10506 10510 10515 10518 10522 10525 10528 10531 10533 10535 10537 10541 10544 10545 10545 10546 10547 10546 10546 10545 10545 10546 10547 10549 10551 10553 10556
10424 10429 10434 10440 10445 10450 10455 10460 10464 10469 10473 10477 10481 10484 10487 10491 10495 10500 10504 10507 10510 10513 10515 10516 10519 10522 10526 10528 10530 10531 10534 10535 10536 10536 10535 10535 10536 10536 10537 10540 10541 10542
10407 10413 10418 10423 10428 10433 10438 10443 10448 10453 10457 10462 10466 10470 10473 10476 10480 10484 10489 10492 10495 10498 10500 10501 10503 10506 10509 10511 10513 10516 10519 10522 10522 10523 10524 10526 10527 10527 10527 10528 10530 10531
10389 10395 10400 10406 10411 10416 10421 10426 10431 10436 10442 10446 10450 10454 10459 10463 10466 10469 10473 10476 10480 10482 10485 10487 10488 10491 10494 10496 10497 10499 10502 10504 10506 10509 10511 10513 10515 10517 10517 10517 10518 10520
10371 10376 10382 10388 10393 10398 10404 10409 10414 10420 10426 10431 10435 10439 10444 10448 10452 10455 10457 10460 10464 10467 10470 10472 10473 10476 10480 10482 10483 10484 10485 10486 10489 10492 10495 10498 10500 10503 10505 10505 10506 10508
10353 10358 10364 10369 10375 10380 10386 10392 10397 10403 10409 10415 10419 10424 10429 10433 10437 10440 10441 10444 10448 10452 10455 10457 10458 10460 10465 10468 10469 10469 10470 10470 10473 10475 10478 10481 10483 10486 10489 10490 10492 10495
10334 10340 10346 10351 10357 10363 10368 10374 10380 10385 10392 10398 10403 10407 10412 10416 10420 10424 10426 10428 10432 10436 10439 10441 10443 10445 10449 10452 10454 10455 10455 10456 10458 10460 10462 10464 10465 10467 10471 10475 10478 10480
10314 10321 10327 10333 10339 10345 10351 10356 10362 10367 10374 10380 10386 10390 10394 10399 10403 10407 10410 10412 10416 10419 10421 10424 10427 10430 10433 10435 10438 10440 10442 10443 10445 10446 10447 10447 10448 10451 10454 10458 10462 10465
10296 10301 10307 10314 10321 10327 10333 10338 10343 10349 10355 10361 10367 10372 10377 10381 10385 10389 10393 10396 10399 10402 10404 10407 10409 10413 10416 10419 10422 10426 10428 10429 10429 10431 10431 10431 10433 10436 10439 10443 10447 10450
10277 10282 10288 10294 10301 10308 10314 10320 10325 10330 10335 10341 10347 10353 10358 10363 10367 10371 10375 10378 10382 10384 10386 10390 10392 10396 10400 10404 10407 10410 10411 10412 10412 10413 10415 10416 10418 10421 10425 10429 10434 10437
10257 10263 10268 10274 10280 10287 10294 10300 10305 10311 10316 10321 10327 10333 10338 10343 10348 10352 10356 10360 10363 10366 10369 10373 10376 10380 10384 10388 10390 10392 10393 10394 10395 10396 10397 10399 10401 10405 10410 10415 10420 10423
10237 10243 10248 10253 10259 10266 10273 10279 10284 10290 10295 10301 10307 10312 10317 10322 10327 10332 10337 10341 10345 10349 10352 10355 10359 10364 10367 10369 10372 10373 10375 10376 10377 10378 10380 10382 10385 10389 10395 10400 10404 10406
10216 10222 10227 10232 10238 10244 10251 10257 10262 10268 10274 10279 10285 10291 10297 10302 10307 10312 10317 10321 10325 10330 10334 10338 10342 10345 10348 10350 10352 10355 10357 10359 10360 10360 10362 10364 10368 10374 10379 10383 10387 10389
10196 10202 10206 10211 10217 10222 10228 10235 10240 10246 10252 10257 10263 10269 10275 10282 10287 10292 10297 10301 10306 10310 10315 10319 10323 10325 10328 10331 10334 10337 10339 10340 10341 10341 10343 10346 10351 10356 10362 10367 10370 10371
10177 10183 10187 10191 10196 10200 10206 10213 10219 10224 10230 10235 10241 10247 10253 10260 10266 10272 10277 10282 10286 10290 10294 10298 10301 10305 10309 10312 10315 10318 10320 10320 10320 10320 10324 10328 10333 10338 10345 10350 10352 10351
10158 10164 10168 10170 10174 10179 10184 10191 10198 10203 10209 10214 10220 10226 10232 10238 10245 10250 10255 10261 10266 10269 10273 10277 10281 10285 10289 10293 10296 10297 10298 10297 10297 10300 10305 10310 10315 10321 10328 10332 10332 10330
10137 10144 10148 10151 10154 10158 10164 10171 10177 10183 10189 10194 10199 10205 10211 10217 10222 10228 10233 10238 10243 10248 10252 10257 10261 10264 10268 10272 10274 10275 10275 10275 10276 10280 10286 10293 10299 10304 10309 10311 10310 10308